Sea Oak — WDD7669 — position and weather

sailwx.info

Track history (hours):
 
Tides and Currents Weather Stations Pressure Air Temp Water Temp Dewpoint Dewpoint Depression Visibility Wind Speed Wind Dir Waves Ship Positions

Sea Oak

Owner: GARBER BROTHERS, INC., MORGAN CITY, LA. More information available from US FCC via Universal Licensing System and Coast Guard Vessel Documentation Center.

Last reported at 2017-Nov-23 13:27 UTC. Time now 2017-Nov-25 02:00 UTC.
Position N 29°54' W 093°21'.

Type: Towing. MMSI: 367189580.

Date/timePositionNaut miles runAvg speedWind from/ knotsBaromVisibWave heightAir tempDewpointWater temp
2017-Nov-23 13:27N 29°54' W 093°21'2 4.0
2017-Nov-23 13:00N 29°55' W 093°20'2 4.0
2017-Nov-23 12:30N 29°57' W 093°20'2 3.9
2017-Nov-23 12:00N 29°59' W 093°20'2 3.6
2017-Nov-23 11:30N 30°01' W 093°20'2 3.6
2017-Nov-23 11:00N 30°03' W 093°20'2 3.9
2017-Nov-23 10:30N 30°05' W 093°20'1 1.4
2017-Nov-23 10:00N 30°05' W 093°20'1 2.2
2017-Nov-23 09:30N 30°04' W 093°21'1 2.9
2017-Nov-23 09:00N 30°04' W 093°23'2 4.0
2017-Nov-23 08:30N 30°04' W 093°25'2 4.0
2017-Nov-23 08:00N 30°04' W 093°27'2 3.9
2017-Nov-23 07:30N 30°04' W 093°30'2 3.9
2017-Nov-23 07:00N 30°04' W 093°32'2 3.9
2017-Nov-23 06:30N 30°04' W 093°34'2 3.8
2017-Nov-23 05:59N 30°03' W 093°36'2 4.0
2017-Nov-23 05:29N 30°04' W 093°39'2 4.2
2017-Nov-23 05:00N 30°04' W 093°41'  
Track history (hours):
 
Tides and Currents Weather Stations Pressure Air Temp Water Temp Dewpoint Dewpoint Depression Visibility Wind Speed Wind Dir Waves Ship Positions

Sea Oak

Owner: GARBER BROTHERS, INC., MORGAN CITY, LA. More information available from US FCC via Universal Licensing System and Coast Guard Vessel Documentation Center.

Last reported at 2017-Nov-23 13:27 UTC. Time now 2017-Nov-25 02:00 UTC.
Position N 29°54' W 093°21'.

Type: Towing. MMSI: 367189580.

Date/timePositionNaut miles runAvg speedWind from/ knotsBaromVisibWave heightAir tempDewpointWater temp
2017-Nov-23 13:27N 29°54' W 093°21'2 4.0
2017-Nov-23 13:00N 29°55' W 093°20'2 4.0
2017-Nov-23 12:30N 29°57' W 093°20'2 3.9
2017-Nov-23 12:00N 29°59' W 093°20'2 3.6
2017-Nov-23 11:30N 30°01' W 093°20'2 3.6
2017-Nov-23 11:00N 30°03' W 093°20'2 3.9
2017-Nov-23 10:30N 30°05' W 093°20'1 1.4
2017-Nov-23 10:00N 30°05' W 093°20'1 2.2
2017-Nov-23 09:30N 30°04' W 093°21'1 2.9
2017-Nov-23 09:00N 30°04' W 093°23'2 4.0
2017-Nov-23 08:30N 30°04' W 093°25'2 4.0
2017-Nov-23 08:00N 30°04' W 093°27'2 3.9
2017-Nov-23 07:30N 30°04' W 093°30'2 3.9
2017-Nov-23 07:00N 30°04' W 093°32'2 3.9
2017-Nov-23 06:30N 30°04' W 093°34'2 3.8
2017-Nov-23 05:59N 30°03' W 093°36'2 4.0
2017-Nov-23 05:29N 30°04' W 093°39'2 4.2
2017-Nov-23 05:00N 30°04' W 093°41'  

Dump ship's entire track history